Regional Weather Roundup
Issued by NWS Charleston, SC

Current Version | Previous Version | Graphics & Text | Print | Product List | Glossary On
Versions: 1 2 3 4 5 6 7 8 9 10 11 12 13 14 15 16 17 18 19 20 21 22 23 24 25 26 27 28 29 30 31 32 33 34 35 36 37 38 39 40 41 42 43 44 45 46 47 48 49 50
677 ASUS42 KCHS 061813 RWRCHS REGIONAL WEATHER ROUNDUP NATIONAL WEATHER SERVICE CHARLESTON SC 200 PM EDT FRI MAY 06 2016 NOTE: "FAIR" INDICATES FEW OR NO CLOUDS BELOW 12,000 FEET WITH NO SIGNIFICANT WEATHER AND/OR OBSTRUCTIONS TO VISIBILITY. NOT ALL STATIONS ARE QUALITY CONTROLLED. USE DATA WITH CAUTION... ESPECIALLY DEWPOINT OBSERVATIONS. SCZ027-030-031-034>040-042>050-061900- ...SOUTHEAST SOUTH CAROLINA... CITY SKY/WX TMP DP RH WIND PRES REMARKS N CHARLESTON PTSUNNY 71 46 40 N12 29.81F 6HR MIN TEMP: 52; 6HR MAX TEMP: 73; WATERFRONT PRK N/A 67 48 50 W6 29.80F MOUNT PLEASANT FAIR 70 48 46 NW13 29.81S JOHNS ISLAND FAIR 72 50 46 W10 29.81F PINOPOLIS N/A 68 52 56 NW9 29.72F MONCKS CORNER FAIR 66 43 42 N7 29.81S SUMMERVILLE MOCLDY 70 48 46 NW9 29.82F BEAUFORT MCAS MOSUNNY 72 47 40 NW13 29.83F 6HR MIN TEMP: 51; 6HR MAX TEMP: 73; BEAUFORT ARPT MOCLDY 70 43 37 NW14G22 29.83S HAZE HILTON HEAD IS MOSUNNY 70 46 43 W9G17 29.85F WALTERBORO MOCLDY 72 43 35 N5 29.83S ALLENDALE CLOUDY 70 45 40 VRB5 29.83F ...SOUTHERN MIDLANDS AND PEE DEE... CITY SKY/WX TMP DP RH WIND PRES REMARKS GEORGETOWN MOCLDY 68 46 45 W6 29.81S KINGSTREE CLOUDY 68 43 40 NW12G17 29.79F ORANGEBURG PTSUNNY 69 45 41 W6 29.82F 6HR MIN TEMP: 54; 6HR MAX TEMP: 70; BARNWELL MOCLDY 72 46 40 N8 29.84F AIKEN FAIR 68 45 42 W9 29.87F MANNING MOCLDY 68 46 45 NW6 29.80F COLUMBIA PTSUNNY 70 44 39 NW8 29.82S 6HR MIN TEMP: 56; 6HR MAX TEMP: 71; SUMTER PTSUNNY 70 46 42 NW7G17 29.78F 6HR MIN TEMP: 55; 6HR MAX TEMP: 70; FLORENCE PTSUNNY 68 47 46 W9G17 29.79S 6HR MIN TEMP: 54; 6HR MAX TEMP: 70; MYRTLE BEACH PTSUNNY 66 46 48 NW16 29.80S N MYRTLE BEACH PTSUNNY 67 49 52 NW8 29.77S 6HR MIN TEMP: 51; 6HR MAX TEMP: 67; $$ GAZ063-065-086>088-099>101-113>116-118-119-134>141-150-061900- ...SOUTHEAST GEORGIA... CITY SKY/WX TMP DP RH WIND PRES REMARKS SAVANNAH ARPT MOSUNNY 72 43 35 NW14 29.85F 6HR MIN TEMP: 51; 6HR MAX TEMP: 73; HUNTER AAF MOSUNNY 71 47 43 W7G17 29.82F 6HR MIN TEMP: 51; 6HR MAX TEMP: 71; FORT STEWART MOSUNNY 71 43 37 W5G18 29.84F 6HR MIN TEMP: 51; 6HR MAX TEMP: 71; STATESBORO PTSUNNY 72 50 45 W7 29.85F SYLVANIA PTCLDY 73 49 42 NW9 29.85F CLAXTON FAIR 71 48 44 W8G16 29.87S ...CSRA...CENTRAL AND FAR SOUTHEAST GEORGIA... CITY SKY/WX TMP DP RH WIND PRES REMARKS THOMSON PTSUNNY 70 48 45 NW7 29.90F AUGUSTA-BUSH MOSUNNY 70 44 39 NW13 29.84F 6HR MIN TEMP: 50; 6HR MAX TEMP: 72; AUGUSTA-DANIEL PTSUNNY 69 43 38 VRB5 29.85F SWAINSBORO MOCLDY 70 43 37 W5 29.87F VIDALIA MOSUNNY 70 45 40 NW8 29.87F EASTMAN MOCLDY 70 47 43 N9 29.91F HAZLEHURST FAIR 72 44 36 NW6 29.87F ALMA SUNNY 69 45 41 MISG 29.87F 6HR MIN TEMP: 50; 6HR MAX TEMP: 69; WAYCROSS SUNNY 69 46 43 N3 29.88F JESUP FAIR 72 46 40 CALM 29.87F BAXLEY FAIR 70 43 37 NW9 29.87F BRUNSWICK MOSUNNY 77 46 33 NW6 29.88S SAINT SIMONS SUNNY 70 45 40 VRB3 29.87F 6HR MIN TEMP: 52; 6HR MAX TEMP: 71; $$ SCZ027-028-034-036>038-045-046-048>050-GAZ119-141-061900- ...LAKE AND SUPPLEMENTAL COASTAL OBSERVATIONS... STATION/POSITION TIME TEMP WIND PRES WAVE SWELL AIR SEA DIR/SP/G HT/PER HT/PER/DIR (UTC) (F) (DEG/KT/KT) (MB) (FT/S) (FT/S/D) WINYAH BAY 1645 64 320/ 8 1008.0 LAKE MURRAY 1700 67 350/ 5/ 10 1009.8F ACE BASIN NERRS NOT AVBL FORT PULASKI 1700 65 71 300/ 10/ 14 1011.2F SAPELO ISLAND 1700 70 340/ 7 1012.0S $$ ANZ835-935-AMZ111-154-330-350-352-354-370-450-454-472-061900- ...C-MAN AND BUOY OBSERVATIONS... STATION/POSITION TIME TEMP WIND PRES WAVE SWELL AIR SEA DIR/SP/G HT/PER HT/PER/DIR (UTC) (F) (DEG/KT/KT) (MB) (FT/S) (FT/S/D) BUOY 41004 1750 63 72 280/ 12/ 14 1009.7F 3/ 4 2/ 6 BUOY 41008 NOT AVBL FOLLY BEACH CMAN 1700 66 290/ 8/ 10 1010.0F CAPERS NEARSHORE 1708 65 70 320/ 14/ 17 1009.6F FRIPP NEARSHORE 1708 65 70 310/ 8/ 16 1010.0F STATION/POSITION TIME TEMP WIND PRES WAVE SWELL AIR SEA DIR/SP/G HT/PER HT/PER/DIR (UTC) (F) (DEG/KT/KT) (MB) (FT/S) (FT/S/D) 5E ST. MARYS GA 1721 71 N/A 1/ 3 FRYING PAN BUOY 1700 60 72 280/ 16/ 21 1008.5R BUOY 41025 1750 60 75 260/ 16/ 19 1006.2S 6/ 9 5/100/ 9 CAPE LOOKOUT NC 1700 59 280/ 13/ 16 1006.2F BUOY 41002 1750 66 73 180/ 16/ 19 1008.6R 9/ 9 7/240/ 9 BUOY 41010 1720 71 79 290/ 14/ 19 1010.8F ST AUGUSTINE FL 1800 62 71 40/ 9/ 10 1012.9F $$

USA.gov is the U.S. government's official web portal to all federal, state and local government web resources and services.